Regional Weather Roundup
Issued by NWS

Home | Current Version | Previous Version | Text Only | Print | Product List | Glossary Off
Versions: 1 2 3 4 5 6 7 8 9 10 11 12 13 14 15 16 17 18 19 20 21 22 23 24 25 26 27 28 29 30 31 32 33 34 35 36 37 38 39 40 41 42 43 44 45 46 47 48 49 50

000
ASUS43 KIND 260259
RWRIN

WEATHER ROUNDUP FOR INDIANA
NATIONAL WEATHER SERVICE INDIANAPOLIS IN
1100 PM EDT WED MAY 25 2016

NOTE: "FAIR" INDICATES FEW OR NO CLOUDS BELOW 12,000 FEET WITH NO
SIGNIFICANT WEATHER AND/OR OBSTRUCTIONS TO VISIBILITY.

* - STATION DOES NOT REPORT WEATHER SUCH AS PRECIPITATION OR FOG.

+ - STATION NOT QUALITY CONTROLLED BY THE NATIONAL WEATHER SERVICE.
    USE DATA WITH CAUTION...ESPECIALLY DEWPOINT AND RELATIVE
    HUMIDITY OBSERVATIONS.

INZ001>003-010>013-019-020-260400-
NORTHWEST INDIANA

CITY           SKY/WX    TMP DP  RH WIND       PRES   REMARKS
GARY /AIRPORT/ MOCLDY    66  66 100 VRB5      29.98R
RENSSELAER +   CLOUDY    75  61  60 S13       29.98S

$$

LMZ046-743>745-260400-
SOUTHERN LAKE MICHIGAN

STATION/POSITION TIME  TEMP    WIND        PRES    WAVE
                       AIR SEA DIR/SP/G            HT
                 (UTC) (F)     (DEG/KT/KT) (MB)    (FT)
BURNS HARBOR     0200   62      50/  8/ 13 1014.9R
MICHIGAN CITY    0200   63     330/ 11/ 12   N/A
5NW MICH CITY    0200   65 60   10/  6/ 12   N/A     1

$$

INZ004-005-014>016-021>024-260400-
NORTH CENTRAL INDIANA

CITY           SKY/WX    TMP DP  RH WIND       PRES   REMARKS
GOSHEN         CLOUDY    76  59  55 S9        29.97R
SOUTH BEND     CLOUDY    70  63  78 NW13      29.98R

$$

INZ006>009-017-018-025>027-260400-
NORTHEAST INDIANA

CITY           SKY/WX    TMP DP  RH WIND       PRES   REMARKS
ANGOLA *+      PTCLDY    70  63  78 CALM      29.99R
FORT WAYNE     CLOUDY    77  61  57 S10       30.01R

$$

INZ028-029-035-036-043>045-051>053-260400-
WEST CENTRAL INDIANA

CITY           SKY/WX    TMP DP  RH WIND       PRES   REMARKS
CRAWFORDSVL +  CLOUDY    69  63  79 S7        30.03R
GREENCASTLE +  CLOUDY    70  64  83 S7        30.04R
LAFAYETTE      CLOUDY    72  61  68 SW6       30.00R
TERRE HAUTE    PTCLDY    72  64  76 S12       30.03R

$$

INZ030>032-037>040-046>048-054>057-064-065-260400-
CENTRAL INDIANA

CITY           SKY/WX    TMP DP  RH WIND       PRES   REMARKS
INDIANAPOLIS   CLOUDY    73  62  68 S10       30.02R
-EAGLE CREEK   MOCLDY    74  61  63 S8        30.03R
KOKOMO *+      CLOUDY    73  61  64 SW9       30.01R
SHELBYVILLE    CLOUDY    74  63  68 S10       30.04R

$$

INZ033-034-041-042-049-050-058-059-260400-
EAST CENTRAL INDIANA

CITY           SKY/WX    TMP DP  RH WIND       PRES   REMARKS
MUNCIE         CLOUDY    76  62  62 S6        30.03R

$$

INZ060-061-067>069-081>083-085>088-260400-
SOUTHWEST INDIANA

CITY           SKY/WX    TMP DP  RH WIND       PRES   REMARKS
EVANSVILLE     PTCLDY    69  63  81 SW10G18   30.05R
HUNTINGBURG *+ CLOUDY    70  63  78 SW10      30.06R

$$

INZ062-063-066-070>080-084-089>092-260400-
SOUTH CENTRAL AND SOUTHEAST INDIANA

CITY           SKY/WX    TMP DP  RH WIND       PRES   REMARKS
BLOOMINGTON    CLOUDY    71  62  73 SW8       30.05R
MADISON *+     CLOUDY    68  61  77 S3        30.10R
SEYMOUR +      CLOUDY    72  61  68 CALM      30.06R

$$




USA.gov is the U.S. government's official web portal to all federal, state and local government web resources and services.